User: anonymous
Location: Unspecified
(0.0000°N, 0.0000°E)
Time: 19:33:59
(UTC+02:00)
Language:

AO-7 - Orbit

View from above orbital plane
View from above orbital plane
View from above satellite
View from above satellite

Ground track
Ground track

The orbit data is extracted from the following two-line orbital elements,

1 07530U 74089B   14259.98430331 -.00000032  00000-0  70021-4 0   626
2 07530 101.4829 238.8271 0012328 114.6971 279.6680 12.53607124823022
Epoch (UTC): 16 September 2014 23:37:23
Eccentricity: 0.0012328
inclination: 101.4829°
perigee height: 1440 km
apogee height: 1459 km
right ascension of ascending node: 238.8271°
argument of perigee: 114.6971°
revolutions per day: 12.53607124
mean anomaly at epoch: 279.6680°
orbit number at epoch: 82302

The dashed part of the orbit path shows where the satellite is in the earth's shadow,  

DLR